TimeCST,TemperatureF,Dew PointF,Humidity,Sea Level PressureIn,VisibilityMPH,Wind Direction,Wind SpeedMPH,Gust SpeedMPH,PrecipitationIn,Events,Conditions,WindDirDegrees,DateUTC
12:15 AM,-2.2,-7.6,78,30.32,10.0,WNW,6.9,-,N/A,,Clear,300,2013-02-20 06:15:00
12:34 AM,-2.2,-7.6,78,30.33,10.0,NW,4.6,-,N/A,,Clear,310,2013-02-20 06:34:00
12:55 AM,-2.2,-7.6,78,30.33,10.0,WNW,5.8,-,N/A,,Clear,300,2013-02-20 06:55:00
1:15 AM,-2.2,-7.6,78,30.34,10.0,WNW,5.8,-,N/A,,Clear,290,2013-02-20 07:15:00
1:34 AM,-2.2,-7.6,78,30.35,10.0,WNW,4.6,-,N/A,,Clear,300,2013-02-20 07:34:00
1:55 AM,-2.2,-7.6,78,30.35,10.0,WNW,8.1,-,N/A,,Clear,300,2013-02-20 07:55:00
2:15 AM,-2.2,-7.6,78,30.35,10.0,NW,5.8,-,N/A,,Clear,320,2013-02-20 08:15:00
2:55 AM,-2.2,-7.6,78,30.36,10.0,Calm,Calm,-,N/A,,Clear,0,2013-02-20 08:55:00
3:15 AM,-4.0,-7.6,85,30.36,10.0,NW,5.8,-,N/A,,Clear,310,2013-02-20 09:15:00
3:34 AM,-4.0,-7.6,85,30.35,10.0,NNW,4.6,-,N/A,,Clear,330,2013-02-20 09:34:00
3:55 AM,-4.0,-7.6,85,30.35,10.0,NW,3.5,-,N/A,,Clear,320,2013-02-20 09:55:00
4:15 AM,-4.0,-7.6,85,30.36,10.0,NW,4.6,-,N/A,,Clear,320,2013-02-20 10:15:00
4:34 AM,-4.0,-7.6,85,30.35,10.0,NNW,4.6,-,N/A,,Clear,330,2013-02-20 10:34:00
4:55 AM,-4.0,-7.6,85,30.35,10.0,NNW,5.8,-,N/A,,Clear,340,2013-02-20 10:55:00
5:15 AM,-4.0,-7.6,85,30.36,10.0,NW,4.6,-,N/A,,Clear,320,2013-02-20 11:15:00
5:34 AM,-4.0,-7.6,85,30.36,10.0,Calm,Calm,-,N/A,,Clear,0,2013-02-20 11:34:00
5:55 AM,-4.0,-7.6,85,30.36,10.0,NW,3.5,-,N/A,,Clear,320,2013-02-20 11:55:00
6:15 AM,-4.0,-9.4,78,30.36,10.0,NNW,4.6,-,N/A,,Clear,330,2013-02-20 12:15:00
6:34 AM,-4.0,-9.4,78,30.36,10.0,North,6.9,-,N/A,,Clear,350,2013-02-20 12:34:00
6:55 AM,-5.8,-9.4,84,30.35,10.0,North,6.9,-,N/A,,Clear,350,2013-02-20 12:55:00
7:14 AM,-5.8,-9.4,84,30.36,10.0,NNW,5.8,-,N/A,,Clear,340,2013-02-20 13:14:00
7:35 AM,-4.0,-7.6,85,30.36,10.0,North,9.2,-,N/A,,Clear,360,2013-02-20 13:35:00
7:55 AM,-2.2,-7.6,78,30.36,10.0,North,9.2,-,N/A,,Clear,360,2013-02-20 13:55:00
8:14 AM,-2.2,-7.6,78,30.37,10.0,North,6.9,-,N/A,,Clear,10,2013-02-20 14:14:00
8:35 AM,-0.4,-5.8,78,30.36,10.0,North,11.5,-,N/A,,Clear,10,2013-02-20 14:35:00
8:54 AM,-0.4,-5.8,78,30.36,10.0,NNE,11.5,-,N/A,,Clear,20,2013-02-20 14:54:00
9:15 AM,1.4,-4.0,78,30.37,10.0,North,9.2,-,N/A,,Clear,10,2013-02-20 15:15:00
9:34 AM,3.2,-2.2,78,30.38,10.0,NNE,4.6,-,N/A,,Clear,30,2013-02-20 15:34:00
9:54 AM,3.2,-2.2,78,30.38,10.0,NNE,4.6,-,N/A,,Clear,30,2013-02-20 15:54:00
10:15 AM,3.2,-0.4,85,30.39,10.0,ENE,4.6,-,N/A,,Clear,60,2013-02-20 16:15:00
10:34 AM,5.0,-0.4,78,30.39,10.0,Calm,Calm,-,N/A,,Clear,0,2013-02-20 16:34:00
10:55 AM,6.8,1.4,79,30.38,10.0,NE,3.5,-,N/A,,Clear,40,2013-02-20 16:55:00
11:14 AM,8.6,1.4,73,30.37,10.0,NE,4.6,-,N/A,,Clear,50,2013-02-20 17:14:00
11:55 AM,10.4,3.2,73,30.37,10.0,NE,3.5,-,N/A,,Clear,50,2013-02-20 17:55:00
12:14 PM,10.4,3.2,73,30.37,10.0,NNE,3.5,-,N/A,,Clear,20,2013-02-20 18:14:00
12:35 PM,12.2,3.2,67,30.38,10.0,Calm,Calm,-,N/A,,Clear,0,2013-02-20 18:35:00
12:54 PM,12.2,3.2,67,30.39,10.0,Calm,Calm,-,N/A,,Clear,0,2013-02-20 18:54:00
1:15 PM,14.0,5.0,67,30.39,10.0,SW,3.5,-,N/A,,Clear,230,2013-02-20 19:15:00
1:34 PM,15.8,6.8,68,30.39,10.0,Calm,Calm,-,N/A,,Clear,0,2013-02-20 19:34:00
1:55 PM,15.8,6.8,68,30.37,10.0,NW,4.6,-,N/A,,Clear,320,2013-02-20 19:55:00
2:15 PM,17.6,6.8,63,30.36,10.0,North,3.5,-,N/A,,Clear,10,2013-02-20 20:15:00
2:35 PM,17.6,8.6,68,30.35,10.0,North,4.6,-,N/A,,Clear,10,2013-02-20 20:35:00
2:55 PM,17.6,8.6,68,30.33,10.0,NE,5.8,-,N/A,,Clear,40,2013-02-20 20:55:00
3:14 PM,17.6,10.4,73,30.33,10.0,NNE,11.5,-,N/A,,Clear,20,2013-02-20 21:14:00
3:35 PM,17.6,10.4,73,30.32,10.0,NE,11.5,-,N/A,,Clear,50,2013-02-20 21:35:00
3:54 PM,17.6,10.4,73,30.32,10.0,NE,9.2,-,N/A,,Clear,40,2013-02-20 21:54:00
4:15 PM,17.6,10.4,73,30.32,10.0,NE,9.2,-,N/A,,Clear,40,2013-02-20 22:15:00
4:35 PM,17.6,10.4,73,30.32,10.0,NNE,9.2,-,N/A,,Clear,30,2013-02-20 22:35:00
4:54 PM,17.6,10.4,73,30.32,10.0,NNE,9.2,-,N/A,,Clear,30,2013-02-20 22:54:00
5:15 PM,17.6,10.4,73,30.33,10.0,ENE,8.1,-,N/A,,Clear,60,2013-02-20 23:15:00
5:34 PM,15.8,10.4,79,30.33,10.0,ENE,8.1,-,N/A,,Clear,60,2013-02-20 23:34:00
5:54 PM,15.8,10.4,79,30.34,10.0,NE,5.8,-,N/A,,Clear,40,2013-02-20 23:54:00
6:15 PM,15.8,10.4,79,30.33,10.0,NNE,5.8,-,N/A,,Clear,30,2013-02-21 00:15:00
6:34 PM,15.8,10.4,79,30.33,10.0,NNE,8.1,-,N/A,,Clear,30,2013-02-21 00:34:00
6:54 PM,14.0,10.4,86,30.33,10.0,NNE,3.5,-,N/A,,Clear,30,2013-02-21 00:54:00
7:15 PM,14.0,10.4,86,30.33,10.0,NE,5.8,-,N/A,,Clear,40,2013-02-21 01:15:00
7:35 PM,12.2,10.4,92,30.32,10.0,NE,6.9,-,N/A,,Clear,40,2013-02-21 01:35:00
7:54 PM,12.2,8.6,85,30.32,10.0,NE,6.9,-,N/A,,Clear,40,2013-02-21 01:54:00
8:15 PM,12.2,8.6,85,30.32,10.0,ENE,5.8,-,N/A,,Clear,60,2013-02-21 02:15:00
8:35 PM,12.2,8.6,85,30.32,10.0,East,4.6,-,N/A,,Clear,80,2013-02-21 02:35:00
8:54 PM,12.2,8.6,85,30.32,10.0,East,4.6,-,N/A,,Clear,80,2013-02-21 02:54:00
9:15 PM,12.2,8.6,85,30.33,10.0,East,3.5,-,N/A,,Clear,80,2013-02-21 03:15:00
9:34 PM,12.2,8.6,85,30.33,10.0,ENE,5.8,-,N/A,,Clear,70,2013-02-21 03:34:00
9:55 PM,12.2,8.6,85,30.33,10.0,ENE,5.8,-,N/A,,Clear,70,2013-02-21 03:55:00
10:15 PM,12.2,8.6,85,30.32,10.0,ENE,5.8,-,N/A,,Clear,70,2013-02-21 04:15:00
10:34 PM,12.2,8.6,85,30.32,10.0,East,5.8,-,N/A,,Clear,80,2013-02-21 04:34:00
10:55 PM,12.2,8.6,85,30.32,10.0,East,3.5,-,N/A,,Clear,80,2013-02-21 04:55:00
11:14 PM,12.2,8.6,85,30.32,10.0,East,4.6,-,N/A,,Clear,90,2013-02-21 05:14:00
11:34 PM,12.2,8.6,85,30.32,10.0,East,3.5,-,N/A,,Clear,90,2013-02-21 05:34:00
11:55 PM,12.2,8.6,85,30.32,10.0,Calm,Calm,-,N/A,,Clear,0,2013-02-21 05:55:00